Location: Bottenau
(48.5138°N, 8.0462°E)
Time: 04:11:37
(UTC+00:00)

Meteor 1-27 - Pass Details

Date: 18 April 2021
Orbit: 838 x 892 km, 81.2° (Epoch: 09 May)

Event Time Altitude Azimuth Distance (km) Brightness Sun altitude
Exits shadow 20:47:47 39° 158° (SSE) 1,299 4.7 -20.8°
Maximum altitude 20:49:49 61° 96° (E) 991 4.3 -21.0°
Drops below altitude 10° 20:55:33 10° 18° (NNE) 2,560 7.1 -21.6°
Sets 20:58:03 0° 15° (NNE) 3,509 7.9 -21.9°
